Find Starlink 11191

NORAD ID: 60410 Int'l Des: 2024-141 Owner: SPXS Country: US Constellation: starlink operational
LEOCIRCULAR

現在のビュー

3D地球を読み込み中...

About Starlink 11191

Starlink 11191 (NORAD 60410) is a starlink constellation satellite (v2 mini d2c) launched Aug 10, 2024 by SPXS of US. It operates in LEO, CIRCULAR orbit with a mass of 960.00 kg.

Starlink 11191について

説明を読み込み中...

次回通過

Passes for default location (London). Set your location on the main map for personalized predictions.

高度履歴

Loading altitude history...

軌道要素

1 60410U 24141N 26170.74788054 .00001276 00000-0 15381-4 0 9990
2 60410 53.1570 303.0480 0000653 89.6237 270.4855 15.69711011107776
Epoch: Jun 19, 2026 • Age: 9 hours

現在のステータス

高度 364.5 km
速度 7.70 km/s
衛星直下点 47.38°N, 35.82°E
打ち上げ日 Aug 10, 2024
運用期間 1.8 years
タイプ internet

技術仕様

分類 Payload
質量 960.00 kg
乾燥質量 910.00 kg
総質量 960.00 kg
長さ 0.30 m
直径 4.10 m
スパン 29.00 m
形状 Box + pan
製造者 SPXS
バスタイプ Starlink V2MD
フェーズステータス In Orbit
所有者/国 SPXS/US

Most Searched